Location: Hodgeman County Ambulance
(38.0844°N, 99.8949°W)
Time: 21:29:08
(UTC+00:00)

X-37B - Pass Details

Date: 26 September 2021
Orbit: 385 x 389 km, 45.0° (Epoch: 17 October)

Event Time Altitude Azimuth Distance (km) Brightness Sun altitude
Exits shadow 11:58:58 - 299° (WNW) 1,715 3.3 -7.2°
Reaches altitude 10° 11:59:51 10° 307° (NW) 1,413 3.0 -7.0°
Maximum altitude 12:02:26 22° 1° (N) 901 2.5 -6.5°
Drops below altitude 10° 12:05:01 10° 56° (NE) 1,415 4.5 -6.0°
Sets 12:07:23 0° 72° (ENE) 2,270 6.3 -5.5°
